This is the latest recevied weather packets stored in our database for station/object KE8WMS. If no packets are shown the sender has not sent any weather packets the latest 10 day(s).
| Time | Temp. | Humidity | Pressure | Rain* | Wind** | Luminosity | Snow |
|---|---|---|---|---|---|---|---|
| 1777552183 | 6.67° C | 84% | 1010.2 hPa | 0 mm | - | 130 W/m² | - |
| 1777551880 | 6.11° C | 85% | 1010 hPa | 0 mm | - | 130 W/m² | - |
| 1777551579 | 6.11° C | 86% | 1010.1 hPa | 0 mm | - | 121 W/m² | - |
| 1777551275 | 6.11° C | 88% | 1010.1 hPa | 0 mm | - | 68 W/m² | - |
| 1777550971 | 6.11° C | 89% | 1009.9 hPa | 0 mm | - | 95 W/m² | - |
| 1777550668 | 5.56° C | 89% | 1010 hPa | 0 mm | - | 84 W/m² | - |
| 1777550364 | 5.56° C | 90% | 1010.1 hPa | 0 mm | - | 74 W/m² | - |
| 1777550060 | 5.56° C | 90% | 1010.7 hPa | 0 mm | - | 55 W/m² | - |
| 1777549758 | 5.56° C | 90% | 1010.7 hPa | 0 mm | - | 45 W/m² | - |
| 1777549453 | 5.56° C | 90% | 1010.7 hPa | 0 mm | - | 32 W/m² | - |
| 1777549150 | 5.56° C | 90% | 1010.8 hPa | 0 mm | - | 23 W/m² | - |
| 1777548846 | 5° C | 90% | 1011 hPa | 0 mm | - | 26 W/m² | - |
| 1777548543 | 5° C | 91% | 1010.8 hPa | 0 mm | - | 22 W/m² | - |
| 1777548240 | 5° C | 90% | 1010.8 hPa | 0 mm | - | 10 W/m² | - |
| 1777547937 | 5° C | 91% | 1010.7 hPa | 0 mm | - | 15 W/m² | - |
| 1777547633 | 5° C | 91% | 1010.8 hPa | 0 mm | - | 15 W/m² | - |
| 1777547329 | 5° C | 92% | 1010.6 hPa | 0 mm | - | 13 W/m² | - |
| 1777547027 | 5° C | 92% | 1010.5 hPa | 0 mm | - | 15 W/m² | - |
| 1777546724 | 5° C | 92% | 1010.5 hPa | 0 mm | - | 19 W/m² | - |
| 1777546421 | 5° C | 92% | 1010.5 hPa | 0 mm | - | 13 W/m² | - |
| 1777546118 | 5° C | 92% | 1010.4 hPa | 0 mm | - | 9 W/m² | - |
| 1777545813 | 5° C | 91% | 1010.4 hPa | 0 mm | - | 6 W/m² | - |
| 1777545511 | 5° C | 91% | 1010.5 hPa | 0 mm | - | 2 W/m² | - |
| 1777545207 | 5° C | 90% | 1010.2 hPa | 0 mm | - | 2 W/m² | - |
| 1777544905 | 5° C | 90% | 1010.1 hPa | 0 mm | - | 1 W/m² | - |
* Rain latest hour (hover to see other rain measurements)
** Current wind speed in m/s (hover to see current wind gust speed)